| time (UTC) | temp F | wind direction | speed knots | gust knots | rain 1hr in | rain 24hr in | rain mn in | humidity % | barometer mb |
| 20260504060122 | 72 | 0.0 | 0.0 | 0.00 | 0.00 | 0.13 | 99 | 1013.2 | |
| 20260504050514 | 56 | 0.0 | 0.0 | 0.00 | 0.00 | 0.13 | 99 | 1013.1 | |
| 20260504050008 | 56 | 0.0 | 0.0 | 0.00 | 0.00 | 0.13 | 99 | 1013.1 | |
| 20260504045502 | 56 | 0.0 | 0.9 | 0.00 | 0.00 | 0.13 | 99 | 1013.0 | |
| 20260504044956 | 56 | 0.0 | 0.9 | 0.00 | 0.00 | 0.13 | 99 | 1013.0 | |
| 20260504044459 | 56 | 0.0 | 0.0 | 0.00 | 0.00 | 0.13 | 99 | 1012.9 | |
| 20260504043944 | 56 | 0.0 | 0.0 | 0.00 | 0.00 | 0.13 | 99 | 1012.8 | |
| 20260504043438 | 56 | 0.0 | 0.9 | 0.00 | 0.00 | 0.13 | 99 | 1012.7 | |
| 20260504042932 | 57 | 0.0 | 0.9 | 0.00 | 0.00 | 0.13 | 99 | 1012.7 | |
| 20260504042427 | 57 | 0.0 | 0.9 | 0.00 | 0.00 | 0.13 | 99 | 1012.6 | |
| 20260504041920 | 57 | 0.9 | 1.7 | 0.00 | 0.00 | 0.13 | 99 | 1012.6 | |
| 20260504041423 | 57 | 0.0 | 0.9 | 0.00 | 0.00 | 0.13 | 99 | 1012.6 | |
| 20260504040908 | 57 | 0.0 | 0.9 | 0.00 | 0.00 | 0.13 | 99 | 1012.7 | |
| 20260504040402 | 57 | 0.0 | 0.9 | 0.00 | 0.00 | 0.13 | 99 | 1012.8 | |
| 20260504035856 | 57 | 0.0 | 0.9 | 0.00 | 0.00 | 0.13 | 99 | 1012.9 | |
| 20260504035349 | 57 | 0.0 | 0.9 | 0.00 | 0.00 | 0.13 | 99 | 1012.8 | |
| 20260504034844 | 57 | 0.9 | 1.7 | 0.00 | 0.00 | 0.13 | 99 | 1012.8 | |
| 20260504034346 | 57 | 0.0 | 0.9 | 0.00 | 0.00 | 0.13 | 99 | 1012.8 | |
| 20260504033832 | 57 | 0.9 | 1.7 | 0.00 | 0.00 | 0.13 | 99 | 1012.8 | |
| 20260504033326 | 57 | 0.0 | 0.9 | 0.00 | 0.00 | 0.13 | 99 | 1012.8 | |
| 20260504032820 | 57 | 0.0 | 0.9 | 0.00 | 0.00 | 0.13 | 99 | 1013.0 | |
| 20260504032314 | 57 | 0.0 | 0.9 | 0.00 | 0.00 | 0.13 | 99 | 1013.1 | |
| 20260504031809 | 57 | 0.0 | 0.0 | 0.00 | 0.00 | 0.13 | 99 | 1013.2 | |
| 20260504031310 | 57 | 0.0 | 0.0 | 0.00 | 0.00 | 0.13 | 99 | 1013.2 | |
| 20260504030755 | 57 | 0.9 | 2.6 | 0.00 | 0.00 | 0.13 | 99 | 1013.2 | |
| 20260504030249 | 57 | 0.9 | 1.7 | 0.00 | 0.00 | 0.13 | 99 | 1013.2 | |
| 20260504025742 | 57 | 0.9 | 1.7 | 0.00 | 0.00 | 0.13 | 99 | 1013.1 | |
| 20260504025236 | 57 | 0.9 | 2.6 | 0.00 | 0.00 | 0.13 | 99 | 1013.2 | |
| 20260504024731 | 57 | 0.9 | 2.6 | 0.00 | 0.00 | 0.13 | 99 | 1013.1 | |
| 20260504024233 | 57 | 0.9 | 1.7 | 0.00 | 0.00 | 0.13 | 99 | 1013.2 | |
| 20260504023212 | 58 | 0.9 | 3.5 | 0.00 | 0.00 | 0.13 | 99 | 1013.1 | |
| 20260504022707 | 58 | 0.9 | 3.5 | 0.00 | 0.00 | 0.13 | 99 | 1013.2 | |
| 20260504022200 | 58 | 0.9 | 2.6 | 0.00 | 0.00 | 0.13 | 99 | 1013.3 | |
| 20260504021655 | 58 | 0.9 | 2.6 | 0.00 | 0.00 | 0.13 | 99 | 1013.2 | |
| 20260504021157 | 58 | 0.9 | 3.5 | 0.00 | 0.00 | 0.13 | 99 | 1013.2 | |
| 20260504020642 | 58 | 0.0 | 0.0 | 0.00 | 0.00 | 0.13 | 99 | 1013.2 | |
| 20260504020136 | 58 | 0.0 | 0.0 | 0.00 | 0.00 | 0.13 | 99 | 1013.2 | |
| 20260504015629 | 58 | 0.0 | 0.9 | 0.00 | 0.00 | 0.13 | 99 | 1013.1 | |
| 20260504015124 | 58 | 0.0 | 0.9 | 0.00 | 0.00 | 0.13 | 99 | 1013.2 | |
| 20260504014618 | 57 | 0.9 | 2.6 | 0.00 | 0.00 | 0.13 | 99 | 1013.1 | |
| 20260504014121 | 57 | 0.0 | 0.0 | 0.00 | 0.00 | 0.13 | 99 | 1013.2 | |
| 20260504013606 | 57 | 0.0 | 0.0 | 0.00 | 0.00 | 0.13 | 99 | 1013.2 | |
| 20260504013100 | 57 | 0.0 | 0.0 | 0.00 | 0.00 | 0.13 | 99 | 1013.1 | |
| 20260504012554 | 57 | 0.0 | 0.9 | 0.00 | 0.00 | 0.13 | 99 | 1013.1 | |
| 20260504012048 | 57 | 0.0 | 0.0 | 0.00 | 0.00 | 0.13 | 99 | 1012.8 | |
| 20260504011542 | 57 | 0.0 | 0.0 | 0.00 | 0.00 | 0.13 | 99 | 1012.8 | |
| 20260504011045 | 57 | 0.0 | 0.0 | 0.00 | 0.00 | 0.13 | 99 | 1012.8 | |
| 20260504010530 | 57 | 0.0 | 0.9 | 0.00 | 0.00 | 0.13 | 99 | 1012.7 | |
| 20260504010025 | 57 | 0.9 | 1.7 | 0.00 | 0.00 | 0.13 | 99 | 1012.9 | |
| 20260504005517 | 57 | 0.0 | 0.9 | 0.13 | 0.00 | 0.13 | 99 | 1013.2 | |
| 20260504005011 | 57 | 0.0 | 0.0 | 0.13 | 0.00 | 0.13 | 99 | 1012.9 | |
| 20260504004505 | 57 | 0.0 | 0.9 | 0.11 | 0.00 | 0.11 | 99 | 1012.9 | |
| 20260504004007 | 57 | 0.0 | 0.9 | 0.09 | 0.00 | 0.09 | 99 | 1012.7 | |
| 20260504003453 | 57 | 0.0 | 0.0 | 0.00 | 0.00 | 0.00 | 99 | 1012.9 | |
| 20260504002947 | 57 | 0.0 | 0.0 | 0.00 | 0.00 | 0.00 | 99 | 1012.6 | |
| 20260504002441 | 57 | 0.0 | 0.0 | 0.00 | 0.00 | 0.00 | 99 | 1012.4 | |
| 20260504001936 | 57 | 0.0 | 0.0 | 0.00 | 0.00 | 0.00 | 99 | 1012.6 | |
| 20260504001430 | 57 | 0.0 | 0.0 | 0.00 | 0.00 | 0.00 | 99 | 1012.6 | |
| 20260504000932 | 57 | 0.0 | 0.0 | 0.00 | 0.00 | 0.00 | 99 | 1012.6 | |
| 20260504000417 | 57 | 0.0 | 0.0 | 0.00 | 0.00 | 0.00 | 99 | 1012.7 | |
| 20260503235911 | 57 | 0.0 | 0.0 | 0.00 | 0.00 | 0.00 | 99 | 1012.7 | |
| 20260503235406 | 57 | 0.0 | 0.0 | 0.00 | 0.00 | 0.25 | 99 | 1012.7 | |
| 20260503234859 | 57 | 0.0 | 0.0 | 0.00 | 0.00 | 0.25 | 99 | 1012.7 | |
| 20260503234353 | 57 | 0.0 | 0.0 | 0.00 | 0.00 | 0.25 | 99 | 1012.7 | |
| 20260503233856 | 57 | 0.0 | 0.0 | 0.00 | 0.00 | 0.25 | 99 | 1012.9 | |
| 20260503233341 | 57 | 0.0 | 0.0 | 0.00 | 0.00 | 0.25 | 99 | 1013.1 | |
| 20260503232836 | 57 | 0.0 | 0.0 | 0.00 | 0.00 | 0.25 | 99 | 1013.1 | |
| 20260503232330 | 57 | 0.0 | 0.0 | 0.00 | 0.00 | 0.25 | 99 | 1013.2 | |
| 20260503231824 | 57 | 0.0 | 0.0 | 0.00 | 0.00 | 0.25 | 99 | 1013.2 | |
| 20260503231318 | 57 | 0.0 | 0.0 | 0.00 | 0.00 | 0.25 | 99 | 1013.2 | |
| 20260503230820 | 57 | 0.0 | 0.0 | 0.00 | 0.00 | 0.25 | 99 | 1013.2 | |
| 20260503230306 | 57 | 0.0 | 0.0 | 0.00 | 0.00 | 0.25 | 99 | 1013.3 | |
| 20260503225759 | 58 | 0.9 | 1.7 | 0.00 | 0.00 | 0.25 | 99 | 1013.4 | |
| 20260503225253 | 58 | 0.0 | 0.0 | 0.00 | 0.00 | 0.25 | 99 | 1013.4 | |
| 20260503224747 | 58 | 0.0 | 0.0 | 0.00 | 0.00 | 0.25 | 99 | 1013.5 | |
| 20260503224241 | 58 | 0.0 | 0.0 | 0.00 | 0.00 | 0.25 | 99 | 1013.5 | |
| 20260503223743 | 58 | 0.0 | 0.0 | 0.00 | 0.00 | 0.25 | 99 | 1013.5 | |
| 20260503223229 | 58 | 0.0 | 0.0 | 0.00 | 0.00 | 0.25 | 99 | 1013.5 | |
| 20260503222723 | 58 | 0.0 | 0.0 | 0.00 | 0.00 | 0.25 | 99 | 1013.5 | |
| 20260503222217 | 58 | 0.0 | 0.0 | 0.00 | 0.00 | 0.25 | 99 | 1013.5 | |
| 20260503221711 | 59 | 0.0 | 0.0 | 0.00 | 0.00 | 0.25 | 99 | 1013.5 | |
| 20260503221205 | 59 | 0.0 | 0.0 | 0.00 | 0.00 | 0.25 | 99 | 1013.5 | |
| 20260503220707 | 59 | 0.0 | 0.0 | 0.00 | 0.00 | 0.25 | 99 | 1013.5 | |
| 20260503220152 | 59 | 0.0 | 0.0 | 0.00 | 0.00 | 0.25 | 99 | 1013.5 | |
| 20260503215645 | 59 | 0.0 | 0.0 | 0.11 | 0.00 | 0.25 | 99 | 1013.5 | |
| 20260503215139 | 59 | 0.0 | 0.0 | 0.09 | 0.00 | 0.22 | 99 | 1013.5 | |
| 20260503214632 | 60 | 0.0 | 0.0 | 0.06 | 0.00 | 0.20 | 99 | 1013.6 | |
| 20260503214126 | 60 | 0.0 | 0.0 | 0.04 | 0.00 | 0.18 | 99 | 1013.7 | |
| 20260503213629 | 60 | 0.0 | 0.0 | 0.04 | 0.00 | 0.18 | 99 | 1013.8 | |
| 20260503213114 | 60 | 0.0 | 0.0 | 0.04 | 0.00 | 0.18 | 99 | 1013.8 | |
| 20260503212608 | 60 | 0.0 | 0.0 | 0.04 | 0.00 | 0.18 | 99 | 1013.9 | |
| 20260503212102 | 60 | 0.0 | 0.0 | 0.02 | 0.00 | 0.16 | 99 | 1013.9 | |
| 20260503211555 | 61 | 0.0 | 0.0 | 0.02 | 0.00 | 0.16 | 99 | 1013.9 | |
| 20260503211049 | 61 | 0.0 | 0.0 | 0.02 | 0.00 | 0.16 | 99 | 1013.9 | |
| 20260503210552 | 61 | 0.0 | 0.0 | 0.02 | 0.00 | 0.16 | 99 | 1013.9 | |
| 20260503210037 | 60 | 0.0 | 0.0 | 0.02 | 0.00 | 0.16 | 99 | 1013.9 | |
| 20260503205530 | 61 | 0.0 | 0.0 | 0.13 | 0.00 | 0.13 | 99 | 1014.0 | |
| 20260503205024 | 61 | 0.0 | 0.9 | 0.13 | 0.00 | 0.13 | 99 | 1014.0 | |
| 20260503204518 | 61 | 1.7 | 4.3 | 0.13 | 0.00 | 0.13 | 99 | 1013.9 | |
| 20260503204012 | 61 | 0.0 | 0.9 | 0.13 | 0.00 | 0.13 | 99 | 1013.9 | |
| 20260503203515 | 61 | 0.0 | 0.0 | 0.13 | 0.00 | 0.13 | 99 | 1013.8 | |
| 20260503203000 | 61 | 0.0 | 0.9 | 0.13 | 0.00 | 0.13 | 99 | 1013.7 | |
| 20260503202455 | 61 | 0.0 | 0.0 | 0.13 | 0.00 | 0.13 | 99 | 1013.5 | |
| 20260503201949 | 61 | 0.0 | 0.0 | 0.09 | 0.00 | 0.09 | 99 | 1013.5 | |
| 20260503201443 | 61 | 0.0 | 0.0 | 0.02 | 0.00 | 0.02 | 99 | 1013.4 | |
| 20260503200937 | 61 | 0.0 | 0.0 | 0.02 | 0.00 | 0.02 | 99 | 1013.4 | |
| 20260503200439 | 61 | 0.0 | 0.0 | 0.02 | 0.00 | 0.02 | 99 | 1013.3 | |
| 20260503195924 | 61 | 0.0 | 0.0 | 0.00 | 0.00 | 0.00 | 99 | 1013.2 | |
| 20260503195418 | 61 | 0.0 | 0.0 | 0.00 | 0.00 | 0.00 | 99 | 1013.1 | |
| 20260503194912 | 61 | 0.0 | 0.0 | 0.00 | 0.00 | 0.00 | 99 | 1013.0 | |
| 20260503194406 | 61 | 0.0 | 0.0 | 0.00 | 0.00 | 0.00 | 99 | 1012.9 | |
| 20260503193900 | 61 | 0.0 | 0.0 | 0.00 | 0.00 | 0.00 | 99 | 1012.9 | |
| 20260503193403 | 62 | 0.0 | 0.0 | 0.00 | 0.00 | 0.00 | 99 | 1012.9 | |
| 20260503192848 | 62 | 0.0 | 0.0 | 0.00 | 0.00 | 0.00 | 99 | 1012.9 | |
| 20260503192343 | 62 | 0.0 | 0.0 | 0.00 | 0.00 | 0.00 | 99 | 1013.0 | |
| 20260503191837 | 62 | 0.0 | 0.0 | 0.00 | 0.00 | 0.00 | 99 | 1012.9 | |
| 20260503191331 | 62 | 0.0 | 0.0 | 0.00 | 0.00 | 0.00 | 99 | 1012.8 | |
| 20260503190825 | 62 | 0.0 | 0.0 | 0.00 | 0.00 | 0.00 | 99 | 1012.7 | |
| 20260503190328 | 62 | 0.0 | 0.0 | 0.00 | 0.00 | 0.00 | 99 | 1012.7 | |
| 20260503185812 | 62 | 0.0 | 0.0 | 0.00 | 0.00 | 0.00 | 99 | 1012.7 | |
| 20260503185306 | 62 | 0.0 | 0.0 | 0.00 | 0.00 | 0.00 | 99 | 1012.6 | |
| 20260503184800 | 62 | 0.0 | 0.0 | 0.00 | 0.00 | 0.00 | 99 | 1012.6 | |
| 20260503184255 | 63 | 0.0 | 0.0 | 0.00 | 0.00 | 0.00 | 99 | 1012.6 | |
| 20260503183749 | 63 | 0.0 | 0.0 | 0.00 | 0.00 | 0.00 | 99 | 1012.5 | |
| 20260503183251 | 63 | 0.0 | 0.0 | 0.00 | 0.00 | 0.00 | 99 | 1012.4 | |
| 20260503182736 | 63 | 0.0 | 0.0 | 0.00 | 0.00 | 0.00 | 99 | 1012.4 | |
| 20260503182230 | 63 | 0.0 | 0.0 | 0.00 | 0.00 | 0.00 | 99 | 1012.3 | |
| 20260503181724 | 63 | 0.0 | 0.0 | 0.00 | 0.00 | 0.00 | 99 | 1012.2 | |
| 20260503181218 | 63 | 0.0 | 0.0 | 0.00 | 0.00 | 0.00 | 99 | 1012.3 | |
| 20260503180713 | 63 | 0.0 | 0.0 | 0.00 | 0.00 | 0.00 | 99 | 1012.3 | |
| 20260503180214 | 63 | 0.0 | 0.0 | 0.00 | 0.00 | 0.00 | 99 | 1012.2 | |
| 20260503175659 | 63 | 0.0 | 0.0 | 0.00 | 0.00 | 0.00 | 99 | 1012.1 | |
| 20260503175153 | 63 | 0.0 | 0.0 | 0.00 | 0.00 | 0.00 | 99 | 1012.2 | |
| 20260503174647 | 63 | 0.0 | 0.0 | 0.00 | 0.00 | 0.00 | 99 | 1012.2 | |
| 20260503174141 | 64 | 0.0 | 0.0 | 0.00 | 0.00 | 0.00 | 99 | 1012.2 | |
| 20260503173635 | 64 | 0.0 | 0.0 | 0.00 | 0.00 | 0.00 | 99 | 1012.3 | |
| 20260503173138 | 64 | 0.0 | 0.0 | 0.00 | 0.00 | 0.00 | 99 | 1012.4 | |
| 20260503172624 | 64 | 0.0 | 0.0 | 0.00 | 0.00 | 0.00 | 99 | 1012.3 | |
| 20260503172118 | 64 | 0.0 | 0.0 | 0.00 | 0.00 | 0.00 | 99 | 1012.4 | |
| 20260503171612 | 64 | 0.0 | 0.0 | 0.00 | 0.00 | 0.00 | 99 | 1012.4 | |
| 20260503171106 | 64 | 0.0 | 0.0 | 0.00 | 0.00 | 0.00 | 99 | 1012.3 | |
| 20260503170600 | 64 | 0.0 | 0.0 | 0.00 | 0.00 | 0.00 | 99 | 1012.3 | |
| 20260503150839 | 67 | 0.9 | 3.5 | 0.00 | 0.00 | 0.00 | 99 | 1013.1 | |
| 20260503150333 | 67 | 0.9 | 2.6 | 0.00 | 0.00 | 0.00 | 99 | 1013.0 | |
| 20260503140220 | 69 | 0.0 | 0.9 | 0.00 | 0.00 | 0.00 | 99 | 1013.5 | |
| 20260503131122 | 69 | 0.0 | 0.0 | 0.00 | 0.00 | 0.00 | 99 | 1013.8 | |
| 20260503130616 | 69 | 0.0 | 0.9 | 0.00 | 0.00 | 0.00 | 99 | 1013.8 | |
| 20260503130111 | 69 | 0.0 | 0.9 | 0.00 | 0.00 | 0.00 | 99 | 1013.9 | |
| 20260503110357 | 71 | 1.7 | 5.2 | 0.00 | 0.00 | 0.00 | 99 | 1014.7 | |
| 20260503100247 | 74 | 1.7 | 4.3 | 0.00 | 0.00 | 0.00 | 99 | 1015.1 | |
| 20260503090134 | 71 | 0.9 | 3.5 | 0.00 | 0.00 | 0.00 | 99 | 1015.2 | |
| 20260503081538 | 67 | 1.7 | 4.3 | 0.00 | 0.00 | 0.00 | 99 | 1015.2 | |
| 20260503081032 | 68 | 0.9 | 2.6 | 0.00 | 0.00 | 0.00 | 99 | 1015.3 | |
| 20260503080526 | 68 | 0.9 | 3.5 | 0.00 | 0.00 | 0.00 | 99 | 1015.3 | |
| 20260503072943 | 69 | 0.0 | 0.0 | 0.00 | 0.00 | 0.00 | 99 | 1015.2 | |
| 20260503072437 | 71 | 0.0 | 0.0 | 0.00 | 0.00 | 0.00 | 99 | 1015.2 | |
| 20260503071939 | 72 | 0.0 | 0.0 | 0.00 | 0.00 | 0.00 | 99 | 1015.2 | |
| 20260503071425 | 72 | 0.0 | 0.0 | 0.00 | 0.00 | 0.00 | 99 | 1015.1 | |
| 20260503070919 | 71 | 0.0 | 0.0 | 0.00 | 0.00 | 0.00 | 99 | 1015.1 | |
| 20260503070413 | 72 | 0.0 | 0.0 | 0.00 | 0.00 | 0.00 | 99 | 1015.1 |